Regional Weather Roundup
Issued by NWS Portland, ME

Home | Current Version | Previous Version | Text Only | Print | Product List | Glossary On
Versions: 1 2 3 4 5 6 7 8 9 10 11 12 13 14 15 16 17 18 19 20 21 22 23 24 25 26 27 28 29 30 31 32 33 34 35 36 37 38 39 40 41 42 43 44 45 46 47 48 49 50
000
ASUS41 KGYX 241010
RWRGYX
WEATHER ROUNDUP FOR MAINE AND NEW HAMPSHIRE
NATIONAL WEATHER SERVICE GRAY ME
600 AM EDT THU MAY 24 2018

MEZ002-005-006-010-012-015-018-020-021-024-026-027-029-241100-
MAINE

CITY           SKY/WX    TMP DP  RH WIND       PRES   REMARKS
PORTLAND       CLOUDY    49  49 100 SE6       30.07R
SANFORD        FAIR      42  41  96 CALM      30.07R
WISCASSET      CLOUDY    47  45  93 CALM      30.08R
FRYEBURG       CLOUDY    51  48  89 CALM      30.05R
LEWISTONAUBURN CLOUDY    48  47  96 S7        30.06R
AUGUSTA        CLOUDY    47  45  93 VRB3      30.06R
WATERVILLE     FAIR      45  42  89 CALM      30.04R
BANGOR         MOCLDY    42  42 100 CALM      30.07R
GREENVILLE       N/A     39  36  89 NE3       30.01R
MILLINOCKET    MOCLDY    39  37  92 CALM      30.07R
HOULTON        PTSUNNY   32  32 100 CALM      30.05R
PRESQUE ISLE   FOG       32  32 100 CALM      30.07R VSB 1/4
FRENCHVILLE    FAIR      38  30  73 SE5       30.02R
CARIBOU        CLOUDY    37  33  85 CALM      30.05R
$$

NHZ002-005-008-009-011-012-014-241100-
NEW HAMPSHIRE

CITY           SKY/WX    TMP DP  RH WIND       PRES   REMARKS
PORTSMOUTH     PTCLDY    48  48  99 CALM      30.04R
ROCHESTER      FAIR      50  49  96 CALM      30.05R
NASHUA         FAIR      51  50  96 CALM      30.05R
MANCHESTER     FAIR      55  50  83 CALM      30.04R
CONCORD        FAIR      49  47  93 E3        30.06R
LACONIA        FAIR      48  47  96 NW3       30.06R
PLYMOUTH       FAIR      43  42  98 CALM      30.06R FOG
BERLIN         FOG       35  35 100 CALM      30.06R VSB 1
WHITEFIELD     CLOUDY    37  36  96 CALM      30.07R FOG
JAFFREY        FAIR      45  45 100 CALM      30.06R
KEENE          FOG       44  44 100 CALM      30.08R VSB 1/4
LEBANON        FAIR      42  38  85 CALM      30.07R
MT WASHINGTON  PTCLDY    30  23  74 NW35        N/A  WCI  14
$$

VTZ005-007-008-241100-
VERMONT

CITY           SKY/WX    TMP DP  RH WIND       PRES   REMARKS
ST JOHNSBURY     N/A     41  41 100 MISG      30.07R
MONTPELIER     FAIR      48  33  56 VRB3      30.11R
BURLINGTON     MOCLDY    49  37  63 CALM      30.11R
$$

MAZ007-012-024-CTZ003-RIZ002-NYZ038-NYZ072-241100-
SOUTHERN NEW ENGLAND AND NY

CITY           SKY/WX    TMP DP  RH WIND       PRES   REMARKS
BOSTON         FAIR      55  52  89 N8        30.05R
WORCESTER      FAIR      51  49  92 W5        30.06R
NANTUCKET      CLOUDY    52  52 100 E9        30.02R FOG
PROVIDENCE     FAIR      56  53  90 NW6       30.05R
HARTFORD       FAIR      55  51  86 NE7       30.06R
ALBANY         FAIR      53  47  79 CALM      30.11R
NEW YORK CITY  FAIR      66  52  60 NW10      30.07R
$$

ANZ081-ANZ082-ANZ150-NHZ014-MEZ023>029-241100-
COASTAL MARINE OBSERVATIONS

STATION/POSITION TIME  TEMP    WIND        PRES    WAVE
                       AIR SEA DIR/SP/G            HT/PER
                 (UTC) (F)     (DEG/KT/KT) (MB)    (FT/S)
MOUNT DESERT ROC 1000   44      40/  6/  7 1019.0R
MATINICUS ROCK   1000   46      80/  8/  9 1018.0R
ISLE OF SHOALS   1000   53      40/  4/  4 1017.6R
JEFFREYS LEDGE   0936      53                N/A     2/ 4
$$

.............KEY..............
   WCI - WIND CHILL
   TC  - TEMPERATURE IN CELSIUS
   VSB - VISIBILITY IN MILES
   HX  - HEAT INDEX
   FAIR- INDICATES FEW OR NO CLOUDS BELOW 12,000 FT, WITH NO
         SIGNIFICANT WEATHER AND/OR OBSTRUCTIONS TO VISIBILITY.






USA.gov is the U.S. government's official web portal to all federal, state and local government web resources and services.